Theta_e
325 325 325 325 324 324 324 324 325 326 326 326 327 327 327 326 321 306 302 309 314 330 325 307 303 303 302 302 302 299 292 289 287 290 291 293 292 292 292 291 290 291 291 292 294
324 324 324 324 324 324 324 324 325 325 325 326 326 327 327 324 308 303 317 324 330 329 304 302 300 301 299 299 299 295 290 291 292 292 292 293 292 292 291 288 287 288 290 291 291
321 323 323 323 323 324 323 323 324 324 325 325 326 326 325 318 302 301 325 327 327 324 306 302 301 300 296 297 295 293 289 294 295 295 296 294 292 292 290 288 288 287 288 289 289
319 321 322 322 322 323 323 322 323 324 324 324 325 326 322 309 292 304 326 326 325 310 304 302 300 296 294 293 296 291 294 295 298 297 295 293 293 290 290 291 292 290 289 288 287
318 318 321 321 321 322 322 321 323 324 323 324 325 325 310 300 299 308 319 315 305 305 301 300 297 294 291 293 295 292 293 296 297 296 294 294 292 291 289 288 290 289 288 287 287
317 317 320 320 321 321 322 320 322 323 323 324 326 323 309 298 307 307 304 304 303 303 300 299 296 297 294 295 293 293 294 295 295 296 294 293 289 290 289 288 287 288 287 286 287
319 317 320 320 321 321 321 319 321 322 323 324 325 315 305 303 306 305 305 301 302 302 300 299 299 296 296 293 296 293 291 293 292 294 293 293 289 289 289 287 287 286 286 287 287
319 318 319 320 320 320 320 319 320 321 324 324 324 310 299 307 307 306 302 302 302 302 301 300 300 298 294 295 294 290 288 286 291 292 292 291 286 292 289 287 286 285 284 286 285
318 318 319 319 319 319 319 318 319 322 324 324 311 304 297 312 305 305 301 299 300 300 300 302 300 294 294 290 287 287 284 284 288 292 290 289 287 290 288 287 286 284 284 285 284
318 318 319 319 319 319 318 319 319 317 315 312 307 301 300 300 305 305 301 301 299 298 299 298 292 290 289 288 284 285 283 284 283 287 289 287 288 290 287 287 287 284 282 282 281
317 319 319 318 319 320 313 302 300 297 300 295 295 298 300 305 304 301 300 299 299 297 293 293 290 287 289 289 287 285 283 283 285 289 287 287 289 292 288 285 284 281 282 282 281
317 318 319 318 318 318 303 297 298 299 294 297 297 299 304 302 297 300 299 295 294 292 292 291 288 291 291 289 287 285 283 283 287 288 287 286 285 290 287 287 287 286 283 282 281
317 318 318 317 317 307 299 298 305 302 291 294 300 300 301 302 297 297 297 295 292 291 290 289 290 291 289 286 285 284 283 283 284 285 285 282 280 285 286 287 287 287 285 283 282
316 317 317 315 306 301 299 303 304 301 284 288 294 299 299 298 294 298 296 295 292 292 290 289 289 288 286 286 286 282 286 285 284 281 278 281 277 280 283 284 284 285 281 282 280
315 317 317 312 300 296 301 303 301 294 274 289 296 301 298 294 294 294 296 294 292 291 291 290 286 286 285 286 287 285 285 283 281 280 277 278 276 278 279 281 285 282 282 282 281
314 316 313 307 299 299 301 299 295 285 277 287 295 293 292 293 293 295 293 294 291 290 287 289 288 287 287 286 287 287 284 282 278 277 272 277 278 276 279 282 282 281 282 281 280
314 316 308 304 299 300 301 295 284 278 287 287 291 293 291 290 291 292 290 288 289 285 284 285 286 286 288 284 286 284 282 277 274 272 275 276 274 282 286 285 283 283 281 280 280
314 313 308 304 301 301 297 290 278 283 284 290 291 290 289 291 290 290 288 287 289 287 283 283 283 285 287 286 285 283 283 278 271 271 277 274 275 281 282 280 280 281 282 280 279
313 307 305 303 301 302 290 281 284 286 288 291 290 286 286 289 290 287 286 286 290 289 288 282 282 283 284 284 285 282 279 282 277 262 267 276 278 282 278 278 277 279 279 278 279
308 306 304 304 303 298 285 287 287 291 291 291 287 289 285 287 287 286 285 288 289 289 289 288 283 281 281 281 281 281 283 277 275 267 265 273 276 281 280 279 276 276 277 278 278
307 299 300 304 302 295 289 287 289 293 295 291 288 285 288 287 288 285 287 288 289 287 287 286 285 280 280 280 281 278 277 278 278 277 271 267 279 282 284 282 276 277 278 278 278
304 292 300 304 294 291 289 288 293 291 294 292 291 291 289 289 287 286 286 291 291 288 286 285 283 278 279 278 279 281 282 281 276 273 272 274 280 280 282 282 278 278 279 278 278
298 297 301 301 288 288 287 289 293 289 292 291 290 291 291 289 286 286 289 292 290 289 285 285 281 274 278 278 277 276 279 281 279 276 277 274 279 280 279 277 278 278 278 278 277
299 290 295 295 295 289 288 288 288 293 292 291 290 291 289 287 290 288 286 288 288 289 294 292 282 281 281 281 278 275 277 278 281 277 280 280 282 286 288 285 278 277 277 277 277
299 294 294 288 289 292 290 288 287 287 291 292 290 290 289 286 287 287 290 285 283 287 287 287 283 281 287 288 282 282 283 276 277 281 279 283 283 287 289 290 289 287 278 276 276
299 297 294 294 291 290 291 288 287 288 289 288 288 289 291 288 288 287 290 288 288 280 281 281 283 284 282 284 281 280 284 284 282 282 283 283 283 291 292 292 290 281 277 276 277
307 304 298 295 292 289 288 289 289 291 292 293 292 291 289 290 294 295 293 291 290 288 279 278 280 275 279 281 280 278 283 284 285 286 285 281 286 290 289 285 279 277 277 277 277
Wind_Speed
16 17 17 17 16 16 15 14 13 12 11 10 9 8 8 9 5 6 5 4 6 12 7 6 3 6 3 3 3 3 5 2 3 6 4 2 4 3 1 6 3 4 4 6 8
18 18 18 18 18 16 15 14 13 12 11 10 8 7 7 9 3 6 1 5 8 7 5 7 6 6 3 2 3 5 4 5 2 4 5 3 4 9 5 4 3 4 5 5 4
19 20 20 19 19 18 15 13 11 12 11 10 7 6 6 4 1 1 1 6 6 1 1 1 1 2 3 3 3 2 3 4 3 4 5 4 4 4 9 6 10 13 11 7 6
18 19 20 20 21 20 19 15 11 11 11 10 7 5 4 1 1 2 4 5 4 5 2 4 6 5 3 3 4 2 1 3 5 3 4 5 7 4 5 4 5 14 13 7 8
18 19 19 19 20 21 21 19 14 10 11 9 5 4 1 2 4 2 5 6 3 3 5 3 5 2 1 2 5 1 2 2 6 6 4 6 3 5 7 2 8 12 7 9 8
17 19 18 18 19 21 22 21 17 12 11 9 1 0 2 3 2 4 4 3 5 4 3 5 2 1 1 0 0 3 3 5 4 6 6 6 1 3 6 6 8 10 10 9 10
13 19 19 19 19 20 21 21 18 15 12 6 3 2 3 8 2 3 5 3 2 2 2 2 2 2 2 3 3 3 6 7 3 6 5 6 4 12 7 10 12 11 9 9 9
14 15 17 19 21 22 23 22 19 14 8 4 4 2 5 1 0 3 2 3 3 4 3 3 1 3 1 1 6 5 3 5 2 5 2 5 12 9 12 17 16 12 9 10 9
15 15 16 18 21 22 25 25 19 7 3 3 1 3 5 1 1 0 2 1 3 3 3 2 3 2 4 4 5 6 3 3 9 6 4 7 10 3 9 13 12 12 11 10 8
14 15 16 18 20 22 27 24 11 1 3 2 1 3 0 4 2 1 2 2 3 3 3 4 6 3 4 4 4 4 5 5 7 3 3 5 17 8 10 14 18 12 10 10 10
14 14 15 18 20 21 14 7 8 5 5 5 3 4 1 0 1 1 1 3 3 4 2 3 4 5 9 7 3 2 3 7 6 6 4 9 15 22 11 10 13 11 14 14 13
13 13 16 18 19 22 2 4 3 1 9 1 3 4 4 2 2 4 3 5 4 6 3 5 5 5 2 5 3 3 4 8 10 3 6 9 12 19 9 12 21 20 17 17 10
11 11 14 17 21 5 3 3 2 1 1 8 4 4 4 7 6 6 8 5 4 5 6 7 3 4 4 3 3 5 6 6 9 7 5 8 7 12 4 10 6 13 12 15 17
10 9 11 18 2 4 2 3 2 2 4 9 4 4 3 2 3 2 1 3 3 10 7 6 1 5 4 5 8 5 5 3 5 5 4 4 13 5 6 13 10 12 14 17 14
10 8 7 3 4 2 2 2 2 3 3 6 2 1 2 4 3 1 1 2 6 7 7 8 7 6 6 8 8 8 2 2 2 5 4 5 5 7 2 10 18 14 18 17 17
12 9 4 1 1 2 2 3 2 6 9 4 4 5 3 2 1 2 1 5 2 4 2 6 1 6 8 2 4 4 2 3 4 2 2 5 8 5 6 10 7 6 14 16 16
9 8 2 2 1 3 1 3 3 6 3 5 6 5 4 7 5 6 6 5 8 4 6 1 5 1 2 3 2 4 5 5 7 3 10 4 4 14 12 12 8 9 11 14 14
9 7 5 2 4 4 3 5 9 8 9 2 4 3 7 8 4 6 5 5 7 3 4 5 10 9 5 7 7 6 8 8 8 5 9 1 12 9 6 7 7 8 9 10 12
11 2 3 4 6 3 4 8 11 9 8 9 3 4 6 5 6 6 9 7 10 13 12 7 9 1 2 1 2 5 5 1 3 3 4 6 10 9 5 9 4 6 9 13 15
3 3 5 8 9 4 3 20 9 9 6 3 14 11 9 8 8 8 9 5 7 14 1 6 5 2 2 1 3 4 6 5 3 3 8 8 14 18 9 12 5 8 12 13 11
2 3 1 11 4 3 13 11 9 9 6 9 8 6 9 9 9 7 8 4 6 5 3 6 4 3 4 9 11 3 4 2 3 6 8 3 17 8 9 12 12 15 13 14 15
4 5 4 9 7 5 15 9 7 7 15 10 6 10 11 10 8 8 13 13 11 10 12 7 6 7 16 0 1 3 11 14 8 8 4 4 29 5 9 9 11 13 14 12 13
5 4 3 3 11 13 5 6 14 10 14 14 12 10 7 10 7 11 13 6 11 12 13 10 5 2 6 2 3 7 8 7 2 2 20 10 22 2 3 0 9 10 11 12 12
6 6 5 7 10 11 14 13 14 9 22 7 7 9 6 10 10 8 6 6 7 9 6 15 8 11 18 11 7 7 12 12 16 11 22 30 33 38 27 23 9 10 12 14 15
8 11 11 10 20 22 10 7 23 16 10 18 16 24 15 13 18 23 16 0 2 5 5 10 18 9 25 23 6 7 17 14 20 29 20 38 32 32 30 30 15 16 13 13 16
9 9 3 10 10 25 24 34 28 14 12 13 22 12 24 29 26 17 20 11 18 2 8 4 13 10 21 10 6 12 31 19 25 29 25 33 41 37 37 27 23 11 14 16 16
7 2 6 10 16 16 29 36 30 21 20 23 21 19 23 31 27 26 11 9 11 14 12 10 8 6 23 4 6 17 25 25 28 32 22 30 42 37 28 18 10 7 13 17 17
Wind_Direction
359 356 353 353 352 347 347 346 344 344 345 346 349 345 343 345 344 38 44 283 304 315 328 291 37 358 53 62 52 121 64 115 161 154 193 233 134 27 51 95 44 328 134 147 144
355 353 353 350 347 345 342 340 338 339 339 338 343 343 343 347 66 53 227 309 307 325 25 25 353 356 32 49 23 79 96 189 211 171 176 196 167 156 126 135 54 37 42 88 104
352 351 349 349 345 341 343 341 331 331 333 333 336 338 343 347 340 233 271 324 327 359 156 273 296 47 50 359 6 186 154 180 222 197 159 193 129 140 129 233 195 182 171 167 146
350 347 346 344 343 340 338 340 336 328 328 327 335 347 347 71 249 174 341 340 0 116 37 6 24 39 47 6 335 352 30 188 178 230 155 180 131 155 211 241 182 159 162 153 152
345 343 340 341 340 338 336 334 338 331 323 322 334 360 42 3 255 29 5 357 35 88 63 45 43 55 48 314 339 144 288 302 164 182 221 135 177 202 231 207 130 131 146 154 154
340 337 334 336 338 336 333 330 333 334 322 306 277 32 94 256 104 30 11 51 42 40 44 45 121 160 123 196 76 312 281 269 254 209 180 184 152 36 196 152 135 156 174 172 170
331 334 331 332 335 333 329 325 326 327 320 286 216 146 121 236 5 36 48 77 35 43 83 91 130 101 120 345 349 337 329 328 212 188 200 138 267 237 150 165 175 187 181 182 191
326 326 331 332 332 330 326 319 318 320 324 227 211 137 226 31 322 352 45 71 60 46 78 104 69 98 72 234 18 22 52 357 312 136 206 133 264 261 168 172 196 196 188 187 192
320 323 326 330 331 327 322 312 310 303 121 161 215 139 264 337 201 243 67 109 88 69 46 78 62 80 27 65 9 14 278 267 313 198 126 186 266 261 173 190 201 203 195 196 194
317 321 324 328 329 326 321 300 293 76 121 180 23 35 306 225 164 104 60 91 114 104 56 55 48 51 32 70 248 262 287 260 241 290 204 235 268 260 203 200 213 200 194 200 199
311 320 325 326 328 327 337 348 16 349 30 212 181 228 210 53 37 185 124 104 107 70 196 25 58 241 232 206 195 206 224 246 251 232 244 236 253 270 216 217 225 204 201 206 205
310 323 324 321 323 323 330 51 68 179 305 241 225 270 217 164 258 219 128 160 155 192 132 24 234 222 160 145 183 217 272 269 282 282 187 265 251 271 201 222 217 212 204 203 195
307 322 321 320 318 1 24 98 287 271 253 293 215 204 196 145 211 212 153 164 164 158 183 174 233 117 155 177 216 220 196 243 239 332 276 314 260 244 251 254 242 222 208 208 196
295 311 319 323 20 324 4 341 0 335 46 272 246 281 103 144 262 120 175 146 183 195 167 228 231 196 197 243 156 276 206 261 289 348 255 32 290 253 247 265 226 218 199 202 191
283 288 310 44 289 344 274 331 350 53 326 259 207 281 111 176 133 238 334 66 177 180 132 241 172 192 205 218 159 224 102 224 228 250 329 216 254 256 53 272 260 218 214 204 193
276 275 289 135 89 302 326 345 41 51 250 260 145 176 152 214 217 100 99 51 43 120 324 246 3 176 215 145 165 111 38 52 53 54 311 232 195 238 202 216 256 234 214 194 189
255 258 208 117 226 149 75 32 35 177 277 227 214 170 190 194 210 181 171 178 176 145 222 258 217 235 172 132 85 97 69 328 329 353 234 163 237 251 251 249 234 243 205 202 185
233 156 219 212 140 143 83 64 217 215 220 65 138 110 189 159 240 188 167 223 238 99 115 207 283 175 184 202 181 171 166 164 243 234 282 48 245 254 240 282 278 263 215 189 182
135 161 190 200 153 101 85 214 199 186 203 168 105 173 225 225 193 158 203 207 203 169 184 169 266 136 186 126 136 172 181 168 75 87 354 245 284 286 281 282 279 216 174 190 188
163 202 201 153 152 112 122 232 208 195 144 148 206 185 200 204 173 184 183 196 226 196 138 205 286 173 125 130 30 151 157 80 12 253 265 265 277 250 248 262 188 226 215 201 188
172 230 252 142 139 182 219 226 217 229 180 181 215 240 212 184 199 208 215 244 207 135 111 135 150 205 128 206 175 131 216 123 150 166 200 293 271 193 210 218 199 215 216 202 199
176 231 166 168 188 212 225 191 201 223 223 245 214 221 199 189 204 223 216 215 159 155 166 201 155 202 215 310 348 244 200 176 187 229 250 151 262 163 196 218 181 212 209 205 203
191 187 187 222 213 215 245 255 220 192 198 207 226 192 187 197 233 194 222 190 160 158 171 175 225 295 318 38 350 223 210 221 84 112 233 209 262 131 349 131 209 216 210 206 198
168 184 178 219 234 222 221 234 229 219 236 221 222 176 167 223 220 253 227 207 198 210 187 158 190 179 230 218 128 186 216 207 210 231 251 241 262 269 268 266 221 221 208 202 196
189 214 180 199 221 221 209 228 228 225 215 208 246 228 211 232 229 238 247 64 220 226 180 179 237 195 246 253 202 217 236 187 208 230 233 263 260 265 270 270 268 237 209 192 190
192 204 188 233 181 209 217 239 240 226 183 214 228 205 224 230 221 237 225 209 220 90 173 195 242 222 255 248 197 265 256 235 232 247 252 256 266 266 268 282 278 232 194 193 195
211 172 212 211 219 197 213 230 237 228 243 233 226 224 231 231 233 239 244 242 218 194 184 169 188 146 250 201 88 268 256 239 248 244 235 248 249 263 274 255 234 199 192 197 191